Time,TemperatureF,DewpointF,PressureIn,WindDirection,WindDirectionDegrees,WindSpeedMPH,WindSpeedGustMPH,Humidity,HourlyPrecipIn,Conditions,Clouds,dailyrainin,SoftwareType,DateUTC
2013-02-14 00:02:00,33.0,25.0,29.67,North,0,0.0,0.0,71,0.00,,,0.05,,2013-02-14 06:02:00,
2013-02-14 00:11:00,33.0,25.0,29.67,North,0,0.0,0.0,71,0.00,,,0.05,,2013-02-14 06:11:00,
2013-02-14 00:21:00,33.0,25.0,29.67,North,0,0.0,0.0,71,0.00,,,0.05,,2013-02-14 06:21:00,
2013-02-14 00:31:00,33.0,25.0,29.67,North,0,0.0,0.0,71,0.00,,,0.05,,2013-02-14 06:31:00,
2013-02-14 00:42:00,33.0,25.0,29.67,North,0,0.0,0.0,71,0.00,,,0.05,,2013-02-14 06:42:00,
2013-02-14 00:52:00,33.0,24.0,29.65,North,0,0.0,2.0,70,0.00,,,0.05,,2013-02-14 06:52:00,
2013-02-14 01:01:00,34.0,25.0,29.65,North,0,0.0,1.0,70,0.00,,,0.05,,2013-02-14 07:01:00,
2013-02-14 01:11:00,34.0,26.0,29.65,North,0,0.0,2.0,71,0.00,,,0.05,,2013-02-14 07:11:00,
2013-02-14 01:21:00,34.0,26.0,29.65,North,0,0.0,2.0,71,0.00,,,0.05,,2013-02-14 07:21:00,
2013-02-14 01:31:00,34.0,26.0,29.64,North,0,0.0,2.0,71,0.00,,,0.05,,2013-02-14 07:31:00,
2013-02-14 01:41:00,34.0,26.0,29.64,North,0,0.0,2.0,71,0.00,,,0.05,,2013-02-14 07:41:00,
2013-02-14 01:52:00,34.0,26.0,29.63,North,0,0.0,4.0,71,0.00,,,0.05,,2013-02-14 07:52:00,
2013-02-14 02:01:00,35.0,27.0,29.63,North,0,0.0,0.0,71,0.00,,,0.05,,2013-02-14 08:01:00,
2013-02-14 02:11:00,35.0,27.0,29.63,North,0,0.0,0.0,71,0.00,,,0.05,,2013-02-14 08:11:00,
2013-02-14 02:21:00,35.0,27.0,29.62,North,0,0.0,2.0,71,0.00,,,0.05,,2013-02-14 08:21:00,
2013-02-14 02:31:00,35.0,27.0,29.61,North,0,0.0,4.0,72,0.00,,,0.05,,2013-02-14 08:31:00,
2013-02-14 02:43:00,35.0,27.0,29.61,North,0,0.0,4.0,72,0.00,,,0.05,,2013-02-14 08:43:00,
2013-02-14 02:52:00,35.0,27.0,29.59,North,0,0.0,4.0,72,0.00,,,0.05,,2013-02-14 08:52:00,
2013-02-14 03:01:00,35.0,27.0,29.59,North,0,0.0,2.0,72,0.00,,,0.05,,2013-02-14 09:01:00,
2013-02-14 03:11:00,35.0,27.0,29.58,North,0,0.0,4.0,72,0.00,,,0.05,,2013-02-14 09:11:00,
2013-02-14 03:21:00,35.0,27.0,29.58,North,0,0.0,4.0,72,0.00,,,0.05,,2013-02-14 09:21:00,
2013-02-14 03:31:00,35.0,27.0,29.57,North,0,0.0,3.0,72,0.00,,,0.05,,2013-02-14 09:31:00,
2013-02-14 03:41:00,35.0,27.0,29.57,North,0,0.0,3.0,72,0.00,,,0.05,,2013-02-14 09:41:00,
2013-02-14 03:52:00,35.0,27.0,29.57,North,0,0.0,2.0,72,0.00,,,0.05,,2013-02-14 09:52:00,
2013-02-14 04:02:00,35.0,27.0,29.56,North,0,0.0,2.0,72,0.00,,,0.05,,2013-02-14 10:02:00,
2013-02-14 04:11:00,35.0,27.0,29.56,North,0,0.0,2.0,72,0.00,,,0.05,,2013-02-14 10:11:00,
2013-02-14 04:21:00,35.0,27.0,29.56,North,0,0.0,2.0,72,0.00,,,0.05,,2013-02-14 10:21:00,
2013-02-14 04:31:00,35.0,27.0,29.56,North,0,0.0,4.0,72,0.01,,,0.06,,2013-02-14 10:31:00,
2013-02-14 04:42:00,35.0,27.0,29.56,North,0,0.0,4.0,72,0.01,,,0.06,,2013-02-14 10:42:00,
2013-02-14 04:52:00,35.0,27.0,29.55,North,0,0.0,2.0,72,0.01,,,0.06,,2013-02-14 10:52:00,
2013-02-14 05:02:00,35.0,27.0,29.56,North,0,0.0,6.0,72,0.01,,,0.06,,2013-02-14 11:02:00,
2013-02-14 05:11:00,35.0,27.0,29.55,SSW,199,1.0,5.0,71,0.00,,,0.06,,2013-02-14 11:11:00,
2013-02-14 05:21:00,35.0,27.0,29.55,SSW,199,1.0,5.0,71,0.00,,,0.06,,2013-02-14 11:21:00,
2013-02-14 05:32:00,35.0,26.0,29.55,SW,227,1.0,7.0,70,0.00,,,0.06,,2013-02-14 11:32:00,
2013-02-14 05:42:00,35.0,26.0,29.55,SW,227,1.0,7.0,70,0.00,,,0.06,,2013-02-14 11:42:00,
2013-02-14 05:52:00,36.0,27.0,29.55,North,0,0.0,6.0,70,0.00,,,0.06,,2013-02-14 11:52:00,
2013-02-14 06:02:00,36.0,27.0,29.55,North,0,0.0,6.0,70,0.00,,,0.06,,2013-02-14 12:02:00,
2013-02-14 06:11:00,36.0,27.0,29.55,North,0,0.0,6.0,70,0.00,,,0.06,,2013-02-14 12:11:00,
2013-02-14 06:22:00,36.0,27.0,29.55,North,0,0.0,6.0,69,0.04,,,0.10,,2013-02-14 12:22:00,
2013-02-14 06:32:00,36.0,27.0,29.55,WSW,239,2.0,6.0,69,0.04,,,0.10,,2013-02-14 12:32:00,
2013-02-14 06:42:00,36.0,27.0,29.55,WSW,239,2.0,6.0,69,0.04,,,0.10,,2013-02-14 12:42:00,
2013-02-14 06:53:00,36.0,27.0,29.55,WSW,239,2.0,6.0,69,0.04,,,0.10,,2013-02-14 12:53:00,
2013-02-14 07:01:00,36.0,27.0,29.56,SW,236,2.0,7.0,69,0.04,,,0.10,,2013-02-14 13:01:00,
2013-02-14 07:11:00,36.0,27.0,29.56,SW,236,2.0,7.0,69,0.04,,,0.10,,2013-02-14 13:11:00,
2013-02-14 07:21:00,35.0,26.0,29.56,North,0,0.0,6.0,69,0.00,,,0.10,,2013-02-14 13:21:00,
2013-02-14 07:31:00,35.0,26.0,29.56,North,0,0.0,6.0,70,0.00,,,0.10,,2013-02-14 13:31:00,
2013-02-14 07:41:00,35.0,26.0,29.56,North,0,0.0,6.0,70,0.00,,,0.10,,2013-02-14 13:41:00,
2013-02-14 07:52:00,35.0,26.0,29.57,West,263,2.0,5.0,70,0.00,,,0.10,,2013-02-14 13:52:00,
2013-02-14 08:01:00,35.0,26.0,29.57,North,0,0.0,6.0,70,0.00,,,0.10,,2013-02-14 14:01:00,
2013-02-14 08:11:00,35.0,26.0,29.57,North,0,0.0,7.0,70,0.00,,,0.10,,2013-02-14 14:11:00,
2013-02-14 08:21:00,35.0,26.0,29.57,North,0,0.0,7.0,70,0.00,,,0.10,,2013-02-14 14:21:00,
2013-02-14 08:31:00,35.0,26.0,29.58,West,263,2.0,8.0,70,0.00,,,0.10,,2013-02-14 14:31:00,
2013-02-14 08:41:00,35.0,26.0,29.58,West,263,2.0,8.0,70,0.00,,,0.10,,2013-02-14 14:41:00,
2013-02-14 08:52:00,35.0,27.0,29.58,North,0,0.0,10.0,71,0.00,,,0.10,,2013-02-14 14:52:00,
2013-02-14 09:01:00,35.0,27.0,29.58,West,276,2.0,8.0,72,0.00,,,0.10,,2013-02-14 15:01:00,
2013-02-14 09:11:00,35.0,27.0,29.59,West,266,4.0,13.0,72,0.00,,,0.10,,2013-02-14 15:11:00,
2013-02-14 09:21:00,35.0,27.0,29.59,West,266,4.0,13.0,72,0.00,,,0.10,,2013-02-14 15:21:00,
2013-02-14 09:31:00,35.0,27.0,29.59,West,266,4.0,13.0,72,0.00,,,0.10,,2013-02-14 15:31:00,
2013-02-14 09:41:00,35.0,27.0,29.59,West,266,4.0,13.0,72,0.00,,,0.10,,2013-02-14 15:41:00,
2013-02-14 09:52:00,35.0,28.0,29.59,West,265,2.0,9.0,74,0.02,,,0.12,,2013-02-14 15:52:00,
2013-02-14 10:01:00,35.0,28.0,29.59,West,273,2.0,10.0,74,0.02,,,0.11,,2013-02-14 16:01:00,
2013-02-14 10:11:00,35.0,28.0,29.60,West,271,3.0,12.0,74,0.03,,,0.12,,2013-02-14 16:11:00,
2013-02-14 10:21:00,35.0,28.0,29.60,West,271,3.0,12.0,74,0.03,,,0.12,,2013-02-14 16:21:00,
2013-02-14 10:32:00,35.0,28.0,29.61,West,278,2.0,12.0,74,0.02,,,0.12,,2013-02-14 16:32:00,
2013-02-14 10:41:00,35.0,28.0,29.61,West,278,2.0,12.0,74,0.02,,,0.12,,2013-02-14 16:41:00,
2013-02-14 10:52:00,35.0,28.0,29.61,West,266,4.0,10.0,74,0.01,,,0.12,,2013-02-14 16:52:00,
2013-02-14 11:01:00,35.0,27.0,29.63,West,280,9.0,16.0,73,0.01,,,0.12,,2013-02-14 17:01:00,
2013-02-14 11:11:00,34.0,26.0,29.64,WNW,287,6.0,16.0,72,0.00,,,0.11,,2013-02-14 17:11:00,
2013-02-14 11:21:00,34.0,26.0,29.64,WNW,287,6.0,16.0,72,0.00,,,0.11,,2013-02-14 17:21:00,
2013-02-14 11:31:00,34.0,26.0,29.65,WNW,285,7.0,14.0,72,0.00,,,0.11,,2013-02-14 17:31:00,
2013-02-14 11:41:00,34.0,26.0,29.65,WNW,285,7.0,14.0,72,0.00,,,0.11,,2013-02-14 17:41:00,
2013-02-14 11:52:00,34.0,26.0,29.66,WNW,291,6.0,16.0,72,0.01,,,0.12,,2013-02-14 17:52:00,
2013-02-14 12:01:00,33.0,25.0,29.66,WNW,292,6.0,18.0,71,0.01,,,0.11,,2013-02-14 18:01:00,
2013-02-14 12:11:00,33.0,25.0,29.66,WNW,292,6.0,18.0,71,0.01,,,0.11,,2013-02-14 18:11:00,
2013-02-14 12:23:00,34.0,26.0,29.67,WNW,287,5.0,18.0,71,0.01,,,0.11,,2013-02-14 18:23:00,
2013-02-14 12:32:00,34.0,26.0,29.67,WNW,287,6.0,14.0,71,0.01,,,0.11,,2013-02-14 18:32:00,
2013-02-14 12:41:00,34.0,26.0,29.67,WNW,287,6.0,14.0,71,0.01,,,0.11,,2013-02-14 18:41:00,
2013-02-14 12:52:00,34.0,26.0,29.67,WNW,287,6.0,14.0,71,0.01,,,0.11,,2013-02-14 18:52:00,
2013-02-14 13:02:00,34.0,26.0,29.67,WNW,287,6.0,14.0,71,0.01,,,0.11,,2013-02-14 19:02:00,
2013-02-14 13:11:00,34.0,25.0,29.71,NW,311,4.0,16.0,70,0.00,,,0.10,,2013-02-14 19:11:00,
2013-02-14 13:22:00,34.0,25.0,29.71,NW,311,4.0,16.0,70,0.00,,,0.10,,2013-02-14 19:22:00,
2013-02-14 13:32:00,34.0,25.0,29.72,WNW,282,8.0,14.0,70,0.00,,,0.10,,2013-02-14 19:32:00,
2013-02-14 13:42:00,34.0,25.0,29.72,WNW,282,8.0,14.0,70,0.00,,,0.10,,2013-02-14 19:42:00,
2013-02-14 13:52:00,34.0,25.0,29.72,WNW,295,5.0,13.0,69,0.00,,,0.09,,2013-02-14 19:52:00,
2013-02-14 14:01:00,33.0,24.0,29.73,WNW,297,6.0,16.0,69,0.00,,,0.09,,2013-02-14 20:01:00,
2013-02-14 14:11:00,33.0,24.0,29.74,West,270,8.0,15.0,69,0.00,,,0.09,,2013-02-14 20:11:00,
2013-02-14 14:21:00,33.0,24.0,29.74,West,270,8.0,15.0,69,0.00,,,0.09,,2013-02-14 20:21:00,
2013-02-14 14:31:00,33.0,24.0,29.74,West,270,8.0,15.0,69,0.00,,,0.09,,2013-02-14 20:31:00,
2013-02-14 14:41:00,33.0,24.0,29.74,West,270,8.0,15.0,69,0.00,,,0.09,,2013-02-14 20:41:00,
2013-02-14 14:52:00,33.0,24.0,29.76,WNW,292,9.0,15.0,70,0.00,,,0.09,,2013-02-14 20:52:00,
2013-02-14 15:02:00,33.0,24.0,29.76,WNW,292,9.0,15.0,70,0.00,,,0.09,,2013-02-14 21:02:00,
2013-02-14 15:11:00,33.0,24.0,29.76,WNW,292,9.0,15.0,70,0.00,,,0.09,,2013-02-14 21:11:00,
2013-02-14 15:21:00,32.0,23.0,29.78,WNW,286,8.0,16.0,69,0.00,,,0.09,,2013-02-14 21:21:00,
2013-02-14 15:31:00,32.0,23.0,29.78,WNW,302,5.0,14.0,69,0.00,,,0.09,,2013-02-14 21:31:00,
2013-02-14 15:42:00,32.0,23.0,29.78,WNW,302,5.0,14.0,69,0.00,,,0.09,,2013-02-14 21:42:00,
2013-02-14 15:52:00,32.0,23.0,29.79,WNW,296,5.0,14.0,69,0.00,,,0.09,,2013-02-14 21:52:00,
2013-02-14 16:02:00,32.0,23.0,29.79,WNW,296,5.0,14.0,69,0.00,,,0.09,,2013-02-14 22:02:00,
2013-02-14 16:11:00,33.0,25.0,29.81,WNW,282,5.0,11.0,71,0.00,,,0.09,,2013-02-14 22:11:00,
2013-02-14 16:21:00,33.0,25.0,29.81,WNW,282,5.0,11.0,71,0.00,,,0.09,,2013-02-14 22:21:00,
2013-02-14 16:31:00,33.0,25.0,29.81,WNW,282,5.0,11.0,71,0.00,,,0.09,,2013-02-14 22:31:00,
2013-02-14 16:42:00,33.0,25.0,29.81,WNW,282,5.0,11.0,71,0.00,,,0.09,,2013-02-14 22:42:00,
2013-02-14 16:52:00,33.0,25.0,29.83,WNW,293,5.0,10.0,71,0.00,,,0.09,,2013-02-14 22:52:00,
2013-02-14 17:01:00,33.0,26.0,29.85,WNW,291,5.0,11.0,76,0.00,,,0.09,,2013-02-14 23:01:00,
2013-02-14 17:11:00,33.0,26.0,29.85,WNW,291,5.0,11.0,76,0.00,,,0.09,,2013-02-14 23:11:00,
2013-02-14 17:21:00,33.0,26.0,29.85,WNW,291,5.0,11.0,76,0.00,,,0.09,,2013-02-14 23:21:00,
2013-02-14 17:31:00,33.0,25.0,29.86,WNW,296,4.0,10.0,71,0.00,,,0.09,,2013-02-14 23:31:00,
2013-02-14 17:41:00,33.0,25.0,29.86,WNW,296,4.0,10.0,71,0.00,,,0.09,,2013-02-14 23:41:00,
2013-02-14 17:52:00,33.0,25.0,29.86,West,277,5.0,8.0,71,0.00,,,0.09,,2013-02-14 23:52:00,
2013-02-14 18:01:00,33.0,25.0,29.87,WNW,295,4.0,9.0,71,0.00,,,0.09,,2013-02-15 00:01:00,
2013-02-14 18:11:00,33.0,25.0,29.87,WNW,295,4.0,9.0,71,0.00,,,0.09,,2013-02-15 00:11:00,
2013-02-14 18:21:00,33.0,25.0,29.87,WNW,295,4.0,9.0,71,0.00,,,0.09,,2013-02-15 00:21:00,
2013-02-14 18:31:00,32.0,24.0,29.89,West,269,4.0,9.0,72,0.00,,,0.09,,2013-02-15 00:31:00,
2013-02-14 18:42:00,32.0,24.0,29.89,West,269,4.0,9.0,72,0.00,,,0.09,,2013-02-15 00:42:00,
2013-02-14 18:52:00,32.0,24.0,29.89,WNW,290,5.0,10.0,72,0.00,,,0.09,,2013-02-15 00:52:00,
2013-02-14 19:02:00,32.0,24.0,29.90,WNW,282,3.0,10.0,72,0.00,,,0.09,,2013-02-15 01:02:00,
2013-02-14 19:11:00,32.0,24.0,29.90,WNW,282,3.0,10.0,72,0.00,,,0.09,,2013-02-15 01:11:00,
2013-02-14 19:21:00,32.0,24.0,29.91,West,264,5.0,9.0,72,0.00,,,0.09,,2013-02-15 01:21:00,
2013-02-14 19:31:00,32.0,24.0,29.91,WNW,288,6.0,11.0,73,0.00,,,0.09,,2013-02-15 01:31:00,
2013-02-14 19:41:00,32.0,24.0,29.91,WNW,288,6.0,11.0,73,0.00,,,0.09,,2013-02-15 01:41:00,
2013-02-14 19:52:00,32.0,24.0,29.91,WNW,290,1.0,9.0,72,0.00,,,0.09,,2013-02-15 01:52:00,
2013-02-14 20:01:00,32.0,24.0,29.91,West,274,3.0,11.0,73,0.00,,,0.09,,2013-02-15 02:01:00,
2013-02-14 20:11:00,31.0,23.0,29.91,West,274,3.0,6.0,73,0.00,,,0.09,,2013-02-15 02:11:00,
2013-02-14 20:21:00,31.0,23.0,29.91,West,274,3.0,6.0,73,0.00,,,0.09,,2013-02-15 02:21:00,
2013-02-14 20:31:00,31.0,23.0,29.92,North,0,0.0,6.0,73,0.00,,,0.09,,2013-02-15 02:31:00,
2013-02-14 20:41:00,31.0,23.0,29.92,North,0,0.0,6.0,73,0.00,,,0.09,,2013-02-15 02:41:00,
2013-02-14 20:52:00,31.0,23.0,29.92,North,0,0.0,6.0,73,0.00,,,0.09,,2013-02-15 02:52:00,
2013-02-14 21:02:00,30.0,22.0,29.92,WNW,282,1.0,5.0,73,0.00,,,0.09,,2013-02-15 03:02:00,
2013-02-14 21:11:00,30.0,22.0,29.92,WNW,282,1.0,5.0,73,0.00,,,0.09,,2013-02-15 03:11:00,
2013-02-14 21:22:00,30.0,22.0,29.92,WNW,282,1.0,5.0,73,0.00,,,0.09,,2013-02-15 03:22:00,
2013-02-14 21:32:00,30.0,22.0,29.92,WNW,282,1.0,5.0,73,0.00,,,0.09,,2013-02-15 03:32:00,
2013-02-14 21:42:00,30.0,22.0,29.92,WNW,282,1.0,5.0,73,0.00,,,0.09,,2013-02-15 03:42:00,
2013-02-14 22:01:00,30.0,22.0,29.93,West,277,3.0,7.0,73,0.00,,,0.09,,2013-02-15 04:01:00,
2013-02-14 22:11:00,30.0,22.0,29.93,West,277,3.0,7.0,73,0.00,,,0.09,,2013-02-15 04:11:00,
2013-02-14 22:21:00,30.0,22.0,29.94,West,276,4.0,10.0,73,0.00,,,0.09,,2013-02-15 04:21:00,
2013-02-14 22:32:00,30.0,22.0,29.94,WNW,295,5.0,12.0,73,0.00,,,0.09,,2013-02-15 04:32:00,
2013-02-14 22:42:00,30.0,22.0,29.94,WNW,295,5.0,12.0,73,0.00,,,0.09,,2013-02-15 04:42:00,
2013-02-14 22:52:00,30.0,22.0,29.95,WNW,298,3.0,10.0,73,0.00,,,0.09,,2013-02-15 04:52:00,
2013-02-14 23:02:00,29.0,21.0,29.95,West,279,4.0,8.0,72,0.00,,,0.09,,2013-02-15 05:02:00,
2013-02-14 23:11:00,29.0,21.0,29.95,West,279,4.0,8.0,72,0.00,,,0.09,,2013-02-15 05:11:00,
2013-02-14 23:22:00,29.0,21.0,29.95,West,279,4.0,8.0,72,0.00,,,0.09,,2013-02-15 05:22:00,
2013-02-14 23:32:00,29.0,21.0,29.95,WNW,290,2.0,9.0,71,0.00,,,0.09,,2013-02-15 05:32:00,
2013-02-14 23:41:00,29.0,21.0,29.95,WNW,290,2.0,9.0,71,0.00,,,0.09,,2013-02-15 05:41:00,
2013-02-14 23:52:00,29.0,21.0,29.96,NW,311,3.0,9.0,71,0.00,,,0.09,,2013-02-15 05:52:00,